Location: Dead Woman Crossing
(43.5369°N, 106.3228°W)
Time: 07:38:31
(UTC+00:00)

NANOSAT C BR1 - Pass Details

Date: 07 July 2022
Orbit: 584 x 599 km, 98.0° (Epoch: 09 August)

Event Time Altitude Azimuth Distance (km) Brightness Sun altitude
Rises 08:30:58 0° 24° (NNE) 2,853 ? -21.3°
Reaches altitude 10° 08:33:24 10° 36° (NE) 1,947 ? -21.2°
Maximum altitude 08:37:03 28° 96° (E) 1,144 ? -21.0°
Enters shadow 08:38:34 22° 130° (SE) 1,316 ? -20.9°
